#timestamp,LO_Frequency,Hit,StdDev 
1584928915.8,286046998.3,P
1584928935.7,286046996.7,P
1584928955.5,286046997.0,N
1584928975.3,286046996.9,Y
1584928995.2,286046999.8,P
1584929015.0,286047002.7,N
1584929015.9,286047002.7,N
1584929035.8,286047002.1,N
1584929055.6,286047002.1,N
1584929075.4,286047003.9,N
1584929095.3,286047005.2,N
1584929115.1,286047007.5,Y
1584929135.8,286047005.2,P
1584929155.7,286047007.0,P
1584929175.5,286047007.2,P
1584929195.4,286047003.0,N
1584929215.2,286047003.6,N
1584929235.0,286047004.1,N
1584929235.9,286047004.1,N
1584929255.8,286047003.9,N
1584929275.6,286047003.6,N
1584929295.4,286047003.9,N
1584929315.3,286047003.9,N
1584929335.1,286047003.6,N
1584929355.9,286047003.6,N
1584929375.7,286047003.8,N
1584929395.5,286047005.8,Y
1584929415.4,286047000.0,P
1584929435.2,286047002.4,N
1584929455.0,286047002.2,N
1584929456.0,286047002.2,N
1584929475.8,286047002.0,N
1584929495.6,286047004.0,Y
1584929515.5,286046998.5,P
1584929535.3,286047000.9,N
1584929555.1,286047000.3,N
1584929575.9,286047000.9,N
1584929595.7,286047000.3,N
1584929615.6,286046999.7,N
1584929635.4,286047001.9,N
1584929655.2,286047003.3,N
1584929675.1,286047003.3,N
1584929676.0,286047003.3,N
1584929695.8,286047005.6,Y
1584929715.7,286047001.8,P
1584929735.5,286047004.2,P
1584929755.3,286047006.0,P
1584929775.2,286047003.2,N
1584929795.9,286047002.9,N
1584929815.7,286047002.9,N
1584929835.6,286047003.2,N
1584929855.4,286047005.4,Y
1584929875.3,286047002.6,P
1584929895.1,286047002.7,P
1584929896.0,286047002.7,P
1584929915.8,286047000.3,N
1584929935.7,286047000.7,N
1584929955.5,286046998.5,N
1584929975.4,286047001.0,N
1584929995.2,286046998.9,N
1584930015.0,286046999.0,N
1584930015.9,286046999.0,N
1584930035.8,286046998.5,N
1584930055.6,286046998.3,N
1584930075.5,286046998.5,N
1584930095.3,286047000.8,N
1584930115.1,286047000.7,N
1584930135.9,286047001.0,N
1584930155.7,286047000.2,N
1584930175.5,286047002.8,N
1584930195.4,286046999.7,N
1584930215.2,286047002.8,N
1584930235.1,286047001.6,N
1584930236.0,286047001.6,N
1584930255.8,286047001.7,N
1584930275.6,286047004.3,N
1584930295.5,286047003.3,N
1584930315.3,286047005.9,Y
1584930335.2,286047003.1,P
1584930355.9,286047003.6,P
1584930375.7,286047005.6,P
1584930395.6,286047007.6,Y
1584930415.4,286047004.0,P
1584930435.2,286047003.6,P
1584930455.1,286047003.5,P
1584930456.0,286047003.5,Y
1584930475.8,286047000.4,P
1584930495.7,286047000.9,N
1584930515.5,286047000.7,N
1584930535.3,286047000.5,N
1584930555.2,286046999.9,N
1584930575.0,286046999.7,N
1584930575.9,286046999.7,N
1584930595.8,286047002.5,N
1584930615.6,286047002.3,N
1584930635.4,286047001.6,N
1584930655.3,286047001.3,N
1584930675.1,286047004.1,Y
1584930695.8,286047004.2,P
1584930715.7,286047003.5,N
1584930735.5,286047004.0,N
1584930755.4,286047006.0,Y
1584930775.2,286047002.1,P
1584930795.0,286047001.8,P
1584930795.9,286047001.8,N
1584930815.8,286047002.2,Y
1584930835.6,286047000.8,P
1584930855.5,286046999.9,N
1584930875.3,286046998.5,N
1584930895.1,286047000.6,N
1584930915.9,286047002.3,N
1584930935.7,286047002.4,N
1584930955.5,286047002.7,N
1584930975.4,286047002.0,N
1584930995.2,286047001.4,N
1584931015.0,286047003.2,N
1584931015.9,286047003.2,N
1584931035.8,286047005.8,Y
1584931055.6,286047003.9,P
1584931075.5,286047004.4,P
1584931095.3,286047004.3,P
1584931115.1,286047003.8,Y
1584931135.9,286047002.6,P
1584931155.7,286047004.3,P
1584931175.6,286047001.7,N
1584931195.4,286047002.2,N
1584931215.2,286047002.0,N
1584931235.1,286047003.6,Y
1584931236.0,286047003.6,P
1584931255.8,286047002.0,P
1584931275.6,286047005.5,P
1584931295.5,286047005.3,Y
1584931315.3,286047001.4,P
1584931335.2,286047001.7,N
1584931355.9,286047001.9,N
1584931375.7,286047001.6,N
1584931395.6,286047002.3,Y
1584931415.4,286047001.1,P
1584931435.3,286047001.0,N
1584931455.1,286046998.3,P
1584931456.0,286046998.3,N
1584931475.8,286047001.1,N
1584931495.7,286047001.0,N
1584931515.5,286047000.5,N
1584931535.3,286047002.3,N
1584931555.2,286047000.0,N
1584931575.0,286046999.8,N
1584931575.9,286046999.8,N
1584931595.8,286046998.2,N
1584931615.6,286046998.1,N
1584931635